East Lindsay
DateTemperatureDew Point
09/01 - 05:00 PM87.7°50.3°
09/01 - 04:45 PM87.6°50.5°
09/01 - 04:30 PM87.3°50.8°
09/01 - 04:15 PM87.2°51.7°
09/01 - 04:00 PM87.7°51.7°
09/01 - 03:45 PM88.9°52.4°
09/01 - 03:30 PM89.1°54.0°
09/01 - 03:15 PM88.5°53.9°
09/01 - 03:00 PM89.6°54.2°
09/01 - 02:45 PM87.5°55.2°
09/01 - 02:30 PM87.0°55.3°
09/01 - 02:15 PM85.7°56.0°
09/01 - 02:00 PM85.9°57.1°
09/01 - 01:45 PM85.0°56.7°
09/01 - 01:30 PM83.4°58.1°
09/01 - 01:15 PM82.9°58.0°
09/01 - 01:00 PM81.9°57.7°
09/01 - 12:45 PM80.6°57.5°
09/01 - 12:30 PM79.3°58.1°
09/01 - 12:15 PM79.0°58.0°
09/01 - 12:00 PM79.0°57.8°
09/01 - 11:45 AM77.5°57.5°
09/01 - 11:30 AM76.8°58.1°
09/01 - 11:15 AM75.5°58.4°
09/01 - 11:00 AM75.1°58.6°
09/01 - 10:45 AM73.7°58.8°
09/01 - 10:30 AM72.6°58.4°
09/01 - 10:15 AM71.1°58.3°
09/01 - 10:00 AM70.5°58.1°
09/01 - 09:45 AM70.0°57.9°
09/01 - 09:30 AM68.7°57.6°
09/01 - 09:15 AM68.5°57.3°
09/01 - 09:00 AM68.0°57.5°
09/01 - 08:45 AM65.9°56.9°
09/01 - 08:30 AM64.8°56.8°
09/01 - 08:15 AM63.8°56.9°
09/01 - 08:00 AM62.4°56.7°
09/01 - 07:45 AM61.1°56.8°
09/01 - 07:30 AM59.4°57.7°
09/01 - 07:15 AM57.5°57.3°
09/01 - 07:00 AM56.1°56.0°
09/01 - 06:45 AM55.2°54.8°
09/01 - 06:30 AM54.7°54.1°
09/01 - 06:15 AM54.7°54.0°
09/01 - 06:00 AM54.7°53.8°
09/01 - 05:45 AM55.3°54.2°
09/01 - 05:30 AM55.7°54.6°
09/01 - 05:15 AM55.9°54.6°
09/01 - 05:00 AM56.2°54.8°
09/01 - 04:45 AM56.5°55.0°
09/01 - 04:30 AM56.5°55.1°
09/01 - 04:15 AM56.6°55.0°
09/01 - 04:00 AM56.7°54.8°
09/01 - 03:45 AM57.4°55.3°
09/01 - 03:30 AM58.3°55.6°
09/01 - 03:15 AM58.8°55.5°
09/01 - 03:00 AM58.8°55.1°
09/01 - 02:45 AM59.4°55.4°
09/01 - 02:30 AM59.8°55.1°
09/01 - 02:15 AM60.2°55.0°
09/01 - 02:00 AM60.5°54.5°
09/01 - 01:45 AM60.3°54.4°
09/01 - 01:30 AM60.6°54.5°
09/01 - 01:15 AM60.6°53.8°
09/01 - 01:00 AM61.2°54.1°
09/01 - 12:45 AM61.7°53.4°
09/01 - 12:30 AM61.9°52.8°
09/01 - 12:15 AM62.5°53.2°
09/01 - 12:00 AM63.6°52.5°
08/31 - 11:45 PM64.5°51.7°
08/31 - 11:30 PM65.0°50.3°
08/31 - 11:15 PM65.9°50.1°
08/31 - 11:00 PM66.8°48.9°
08/31 - 10:45 PM67.4°47.3°
08/31 - 10:30 PM67.8°45.7°
08/31 - 10:15 PM68.1°44.8°
08/31 - 10:00 PM68.5°45.0°
08/31 - 09:45 PM69.1°43.5°
08/31 - 09:30 PM69.1°44.5°
08/31 - 09:15 PM68.7°47.3°
08/31 - 09:00 PM70.0°50.0°
08/31 - 08:45 PM71.4°49.2°
08/31 - 08:30 PM72.8°48.1°
08/31 - 08:15 PM74.2°48.6°
08/31 - 08:00 PM75.4°48.9°
08/31 - 07:45 PM74.4°53.0°
08/31 - 07:30 PM73.5°65.8°
08/31 - 07:15 PM75.4°66.4°
08/31 - 07:00 PM78.7°66.1°
08/31 - 06:45 PM83.7°65.6°
08/31 - 06:30 PM88.9°62.1°
08/31 - 06:15 PM93.2°59.7°
08/31 - 06:00 PM94.4°57.4°
08/31 - 05:45 PM95.2°56.8°
08/31 - 05:30 PM95.6°56.4°
08/31 - 05:15 PM96.1°56.2°
08/31 - 05:00 PM97.2°57.0°
08/31 - 04:45 PM95.7°56.6°
08/31 - 04:30 PM95.4°55.8°
08/31 - 04:15 PM95.6°57.1°
08/31 - 04:00 PM94.6°56.2°
08/31 - 03:45 PM96.8°56.0°
08/31 - 03:30 PM97.4°55.7°
08/31 - 03:15 PM97.1°57.4°
08/31 - 03:00 PM96.1°58.0°
08/31 - 02:45 PM95.6°57.5°
08/31 - 02:30 PM95.3°57.6°
08/31 - 02:15 PM94.1°56.9°
08/31 - 02:00 PM93.8°56.0°
08/31 - 01:45 PM93.6°56.5°
08/31 - 01:30 PM92.3°56.3°
08/31 - 01:15 PM91.2°56.3°
08/31 - 01:00 PM91.3°56.2°
08/31 - 12:45 PM90.5°55.7°
08/31 - 12:30 PM89.7°58.7°
08/31 - 12:15 PM88.7°57.5°
08/31 - 12:00 PM88.1°57.9°
08/31 - 11:45 AM87.0°58.5°
08/31 - 11:30 AM86.1°58.0°
08/31 - 11:15 AM85.1°58.3°
08/31 - 11:00 AM84.0°59.0°
08/31 - 10:45 AM82.4°58.3°
08/31 - 10:30 AM81.7°58.3°
08/31 - 10:15 AM80.7°57.0°
08/31 - 10:00 AM79.5°55.8°
08/31 - 09:45 AM78.9°55.2°
08/31 - 09:30 AM77.9°54.0°
08/31 - 09:15 AM77.3°54.3°
08/31 - 09:00 AM76.1°53.4°
08/31 - 08:45 AM74.7°54.1°
08/31 - 08:30 AM72.7°53.2°
08/31 - 08:15 AM71.9°52.9°
08/31 - 08:00 AM71.3°53.7°
08/31 - 07:45 AM69.4°54.7°
08/31 - 07:30 AM65.8°55.3°
08/31 - 07:15 AM62.3°54.9°
08/31 - 07:00 AM59.8°53.6°
08/31 - 06:45 AM59.0°53.7°
08/31 - 06:30 AM58.3°51.7°
08/31 - 06:15 AM58.2°51.6°
08/31 - 06:00 AM58.4°51.6°
08/31 - 05:45 AM58.3°51.0°
08/31 - 05:30 AM58.4°51.2°
08/31 - 05:15 AM58.8°51.4°
08/31 - 05:00 AM59.3°51.6°
08/31 - 04:45 AM59.8°51.4°
08/31 - 04:30 AM60.2°51.5°
08/31 - 04:15 AM60.6°51.4°
08/31 - 04:00 AM60.4°51.4°
08/31 - 03:45 AM60.2°51.7°
08/31 - 03:30 AM59.7°52.3°
08/31 - 03:15 AM59.1°53.7°
08/31 - 03:00 AM59.6°55.3°
08/31 - 02:45 AM60.2°55.5°
08/31 - 02:30 AM60.4°55.3°
08/31 - 02:15 AM61.3°56.2°
08/31 - 02:00 AM62.0°55.1°
08/31 - 01:45 AM61.9°54.8°
08/31 - 01:30 AM62.5°55.4°
08/31 - 01:15 AM63.2°55.2°
08/31 - 01:00 AM63.9°56.7°
08/31 - 12:45 AM64.9°56.3°
08/31 - 12:30 AM65.4°57.1°
08/31 - 12:15 AM65.8°58.7°
08/31 - 12:00 AM64.5°60.0°
08/30 - 11:45 PM64.4°61.3°
08/30 - 11:30 PM64.7°61.9°
08/30 - 11:15 PM64.6°62.3°
08/30 - 11:00 PM64.3°62.9°
08/30 - 10:45 PM65.0°63.7°
08/30 - 10:30 PM65.5°64.2°
08/30 - 10:15 PM65.9°64.5°
08/30 - 10:00 PM66.2°64.5°
08/30 - 09:45 PM66.6°64.7°
08/30 - 09:30 PM67.2°64.8°
08/30 - 09:15 PM67.8°64.8°
08/30 - 09:00 PM68.4°64.7°
08/30 - 08:45 PM69.5°64.9°
08/30 - 08:30 PM70.7°66.1°
08/30 - 08:15 PM72.1°66.3°
08/30 - 08:00 PM73.5°67.0°
08/30 - 07:45 PM75.8°66.6°
08/30 - 07:30 PM78.0°65.0°
08/30 - 07:15 PM80.3°63.1°
08/30 - 07:00 PM82.7°64.2°
08/30 - 06:45 PM85.6°64.3°
08/30 - 06:30 PM89.1°63.4°
08/30 - 06:15 PM92.7°62.1°
08/30 - 06:00 PM94.6°60.9°